Voltar ao catálogo

IRIDIUM 33 DEB

AtivoPO
NORAD 34765·DEBRIS·🇺🇸 United States

Lançado Sep 14, 1997 de Baikonur Cosmodrome

Loading…

Próximas Passagens (próximas 24 horas)

TLE

AtualizadoSource: Space-Track

Época: Sep 14, 2026, 11:59 UTC

1 34765U 97051LJ  26257.49979128  .00000716  00000-0  21590-3 0  9992
2 34765  86.3330 274.3703 0017450  36.9169 115.6710 14.41099063915842

Acompanhe IRIDIUM 33 DEB em tempo real com AllMySat

Download on the App Store